{"data":{"norad_id":43571,"intl_designator":"2018-061C","name":"IRIDIUM 158","alt_names":[],"object_type":"PAYLOAD","status":"ACTIVE","operator":null,"country":"US","launch_date":"2018-07-25","launch_site_code":"AFWTR","launch_vehicle":null,"mission":null,"orbit_class":"UNKNOWN","rcs_meters":null,"size_class":null,"mass_kg":null,"dimensions":null,"purposes":["comms"],"wikipedia_slug":null,"has_3d_model":false,"image_url":null,"decayed_at":null,"tle_current":{"epoch":"2026-05-25T00:43:45.492096Z","epoch_age_seconds":65572,"freshness":"FRESH","line1":"1 43571U 18061C   26145.03038764  .00000208  00000+0  67299-4 0  9991","line2":"2 43571  86.3969  66.4383 0002372  83.5000 276.6465 14.34221510410041","mean_motion":14.3422151,"eccentricity":0.0002372,"inclination_deg":86.3969,"raan_deg":66.4383,"arg_perigee_deg":83.5,"mean_anomaly_deg":276.6465,"bstar":6.7299e-5,"rev_number":41004,"period_min":100.40290080435,"perigee_km":775.95729398241,"apogee_km":779.35200154011,"semimajor_km":7155.7916477613,"source":"CELESTRAK","updated_at":"2026-05-25T13:38:14.811582Z"}}}